Location: Bussy-Saint-Georges
(48.8410°N, 2.7017°E)
Time: 22:51:11
(UTC+00:00)

Cosmos 489 Rocket - Pass Details

Date: 18 October 2021
Orbit: 953 x 983 km, 74.0° (Epoch: 07 December)

Event Time Altitude Azimuth Distance (km) Brightness Sun altitude
Rises 17:59:16 0° 337° (NNW) 3,643 7.8 -11.5°
Reaches altitude 10° 18:01:50 10° 341° (NNW) 2,692 7.0 -12.0°
Maximum altitude 18:08:02 67° 64° (ENE) 1,033 4.4 -13.0°
Drops below altitude 10° 18:14:11 10° 147° (SSE) 2,678 6.5 -14.0°
Sets 18:16:43 0° 150° (SSE) 3,622 7.2 -14.4°
